Weather History for York, PA

Change the Weather History Date:

Friday, November 9, 2012

  Actual Average Record
Temperature  
Mean Temperature 42 °F -  
Max Temperature 55 °F 72 °F 72 °F (1978)
Min Temperature 30 °F 28 °F 21 °F (2003)
Degree Days  
Heating Degree Days 22    
Moisture  
Dew Point 29 °F    
Average Humidity 63    
Maximum Humidity 89    
Minimum Humidity 38    
Precipitation  
Precipitation 0.00 in - - ()
Sea Level Pressure  
Sea Level Pressure 30.17 in    
Wind  
Wind Speed 5 mph (WNW)    
Max Wind Speed 14 mph    
Max Gust Speed 24 mph    
Visibility 10 miles    
Events      
Averages and records for this station are not official NWS values.
T = Trace of Precipitation, MM = Missing Value Source: NWS Daily Summary

Daily Weather History Graph

Daily Weather History Graph

Search for Another Location

Airport:

Trip Planner

Search our weather history database for the weather conditions in past years. The results will help you decide how hot, cold, wet, or windy it might be!

Date:

Astronomy

Nov. 09, 2012 Rise Set
Actual Time 6:46 AM EST 4:56 PM EST
Civil Twilight 6:17 AM EST 5:24 PM EST
Nautical Twilight 5:45 AM EST 5:57 PM EST
Astronomical Twilight 5:13 AM EST 6:28 PM EST
Moon 1:42 AM EST (11/9) 2:07 PM EST (11/9)
Length of Visible Light 11h 07m
Length of Day
10h 10m
Waning Crescent, 23% of the Moon is Illuminated
Nov 9
Waning Crescent
Nov 13
New
Nov 20
First Quarter
Nov 28
Full
Dec 6
Last Quarter

Hourly Weather History & Observations

Time (EST) Temp. Windchill Dew Point Humidity Pressure Visibility Wind Dir Wind Speed Gust Speed Precip Events Conditions
12:53 AM 36.0 °F 32.1 °F 21.9 °F 57% 30.07 in 10.0 mi WNW 4.6 mph - N/A   Clear
1:53 AM 37.0 °F 29.8 °F 21.9 °F 54% 30.08 in 10.0 mi NW 10.4 mph - N/A   Clear
2:53 AM 37.9 °F 32.7 °F 23.0 °F 55% 30.09 in 10.0 mi WNW 6.9 mph - N/A   Clear
3:53 AM 37.0 °F 32.4 °F 24.1 °F 59% 30.10 in 10.0 mi WNW 5.8 mph - N/A   Clear
4:53 AM 33.1 °F 28.7 °F 23.0 °F 66% 30.13 in 10.0 mi SW 4.6 mph - N/A   Clear
5:53 AM 35.1 °F 31.0 °F 26.1 °F 70% 30.15 in 10.0 mi WSW 4.6 mph - N/A   Clear
6:53 AM 30.9 °F - 25.0 °F 79% 30.17 in 10.0 mi Calm Calm - N/A   Clear
7:53 AM 37.9 °F 35.5 °F 28.0 °F 68% 30.19 in 10.0 mi West 3.5 mph - N/A   Clear
8:53 AM 42.1 °F 36.1 °F 30.9 °F 65% 30.19 in 10.0 mi WNW 10.4 mph - N/A   Clear
9:53 AM 46.0 °F 41.0 °F 30.9 °F 56% 30.21 in 10.0 mi NW 10.4 mph 19.6 mph N/A   Clear
10:53 AM 50.0 °F - 32.0 °F 50% 30.21 in 10.0 mi NW 9.2 mph - N/A   Clear
11:53 AM 52.0 °F - 30.9 °F 45% 30.19 in 10.0 mi NNW 8.1 mph - N/A   Clear
12:53 PM 53.1 °F - 30.9 °F 43% 30.17 in 10.0 mi NW 13.8 mph 24.2 mph N/A   Clear
1:53 PM 55.0 °F - 30.9 °F 40% 30.17 in 10.0 mi WNW 6.9 mph - N/A   Partly Cloudy
2:53 PM 55.0 °F - 30.0 °F 38% 30.16 in 10.0 mi NW 9.2 mph - N/A   Clear
3:53 PM 54.0 °F - 30.9 °F 41% 30.16 in 10.0 mi NW 5.8 mph - N/A   Clear
4:53 PM 46.9 °F - 32.0 °F 56% 30.17 in 10.0 mi Calm Calm - N/A   Clear
5:53 PM 39.9 °F - 32.0 °F 73% 30.19 in 10.0 mi Calm Calm - N/A   Clear
6:53 PM 37.9 °F - 32.0 °F 79% 30.20 in 10.0 mi Calm Calm - N/A   Clear
7:53 PM 35.1 °F - 30.9 °F 85% 30.21 in 10.0 mi Calm Calm - N/A   Clear
8:53 PM 35.1 °F - 30.9 °F 85% 30.21 in 10.0 mi Calm Calm - N/A   Clear
9:53 PM 34.0 °F - 30.9 °F 89% 30.22 in 10.0 mi Calm Calm - N/A   Clear
10:53 PM 34.0 °F - 30.0 °F 85% 30.23 in 10.0 mi Calm Calm - N/A   Clear
11:53 PM 33.1 °F - 28.9 °F 85% 30.25 in 10.0 mi Calm Calm - N/A   Clear